Centralia, IL

10:29 PM CST on February 21, 2018 (GMT -0600)
Centralia Municipal

Weather History for KENL - December, 2012

Change the Weather History Date:

Monday, December 31, 2012

  Actual Average (KSLO) Record (KSLO)
Temperature  
Mean Temperature 34 °F -  
Max Temperature 36 °F 36 °F 64 °F (2004)
Min Temperature 31 °F 22 °F -7 °F (1976)
Degree Days  
Heating Degree Days 32    
Moisture  
Dew Point 30 °F    
Average Humidity 85    
Maximum Humidity 96    
Minimum Humidity 70    
Precipitation  
Precipitation 0.07 in - - ()
Sea Level Pressure  
Sea Level Pressure 30.15 in    
Wind  
Wind Speed 8 mph (SSW)    
Max Wind Speed 13 mph    
Max Gust Speed 17 mph    
Visibility 6 miles    
Events Rain , Snow    
Averages and records for this station are not official NWS values.
T = Trace of Precipitation, MM = Missing Value Source: NWS Daily Summary

Daily Weather History Graph

Daily Weather History Graph

Search for Another Location

Airport or City:

Trip Planner

Search our weather history database for the weather conditions in past years. The results will help you decide how hot, cold, wet, or windy it might be!

Date:

Astronomy

Dec. 31, 2012 Rise Set
Actual Time 7:13 AM CST 4:45 PM CST
Civil Twilight 6:44 AM CST 5:15 PM CST
Nautical Twilight 6:10 AM CST 5:48 PM CST
Astronomical Twilight 5:38 AM CST 6:20 PM CST
Moon 8:13 PM CST (12/31) 8:57 AM CST (12/31)
Length of Visible Light 10h 31m
Length of Day
9h 31m
Waning Gibbous, 90% of the Moon is Illuminated
Dec 31
Waning Gibbous
Jan 4
Last Quarter
Jan 11
New
Jan 18
First Quarter
Jan 26
Full

Hourly Weather History & Observations

Time (CST) Temp. Windchill Dew Point Humidity Pressure Visibility Wind Dir Wind Speed Gust Speed Precip Events Conditions
12:15 AM 31.6 °F 22.6 °F 25.7 °F 79% 30.25 in 10.0 mi South 11.5 mph - N/A   Clear
12:35 AM 32.0 °F 23.0 °F 26.1 °F 79% 30.24 in 10.0 mi South 11.5 mph - N/A   Clear
12:55 AM 32.0 °F 23.0 °F 26.2 °F 79% 30.23 in 10.0 mi South 11.5 mph - N/A   Clear
1:15 AM 32.0 °F 23.6 °F 26.4 °F 80% 30.23 in 10.0 mi South 10.4 mph - N/A   Clear
1:35 AM 32.4 °F 24.0 °F 26.6 °F 79% 30.22 in 10.0 mi South 10.4 mph - N/A   Clear
1:55 AM 32.5 °F 24.8 °F 26.6 °F 79% 30.24 in 10.0 mi South 9.2 mph - N/A   Clear
2:15 AM 33.1 °F 24.9 °F 26.6 °F 77% 30.24 in 10.0 mi SSW 10.4 mph - N/A   Clear
2:35 AM 34.0 °F 25.5 °F 26.1 °F 73% 30.24 in 10.0 mi South 11.5 mph 17.3 mph N/A   Clear
2:55 AM 34.2 °F 26.8 °F 26.1 °F 72% 30.24 in 10.0 mi SSW 9.2 mph - N/A   Clear
3:15 AM 34.3 °F 26.5 °F 26.1 °F 72% 30.24 in 10.0 mi SSW 10.4 mph - N/A   Clear
3:35 AM 34.3 °F 27.0 °F 26.1 °F 72% 30.24 in 10.0 mi SSW 9.2 mph - N/A   Clear
3:55 AM 34.2 °F 27.5 °F 25.7 °F 71% 30.23 in 10.0 mi SSW 8.1 mph - N/A   Clear
4:15 AM 34.2 °F 27.5 °F 26.1 °F 72% 30.23 in 10.0 mi SSW 8.1 mph - N/A   Clear
4:35 AM 34.7 °F 27.5 °F 25.7 °F 70% 30.23 in 10.0 mi SSW 9.2 mph - N/A   Scattered Clouds
4:55 AM 34.7 °F 26.4 °F 25.9 °F 70% 30.23 in 10.0 mi SSW 11.5 mph - N/A   Scattered Clouds
5:15 AM 34.9 °F 26.6 °F 26.2 °F 71% 30.21 in 10.0 mi SSW 11.5 mph - N/A   Mostly Cloudy
5:35 AM 34.9 °F 27.1 °F 26.4 °F 71% 30.21 in 10.0 mi SSW 10.4 mph - N/A   Mostly Cloudy
5:55 AM 35.2 °F 27.1 °F 26.4 °F 70% 30.21 in 10.0 mi SSW 11.5 mph - N/A   Scattered Clouds
6:15 AM 35.4 °F 27.3 °F 26.6 °F 70% 30.20 in 10.0 mi SSW 11.5 mph - N/A   Clear
6:35 AM 35.6 °F 28.0 °F 27.0 °F 71% 30.20 in 10.0 mi SSW 10.4 mph - N/A   Clear
6:55 AM 35.6 °F 28.6 °F 27.1 °F 71% 30.21 in 10.0 mi SSW 9.2 mph - N/A   Scattered Clouds
7:15 AM 35.1 °F 27.9 °F 27.7 °F 74% 30.20 in 10.0 mi South 9.2 mph - N/A   Scattered Clouds
7:35 AM 34.9 °F 27.1 °F 28.0 °F 76% 30.20 in 10.0 mi South 10.4 mph - N/A   Scattered Clouds
7:55 AM 34.9 °F 26.6 °F 28.0 °F 76% 30.19 in 10.0 mi South 11.5 mph - N/A   Clear
8:15 AM 35.2 °F 27.6 °F 28.0 °F 75% 30.17 in 10.0 mi South 10.4 mph - N/A   Clear
8:35 AM 35.6 °F 29.2 °F 28.2 °F 75% 30.17 in 10.0 mi South 8.1 mph - N/A   Clear
8:55 AM 35.6 °F 28.0 °F 28.2 °F 75% 30.18 in 10.0 mi South 10.4 mph - N/A   Clear
9:15 AM 35.8 °F 29.4 °F 28.2 °F 74% 30.17 in 10.0 mi South 8.1 mph - N/A   Scattered Clouds
9:35 AM 35.8 °F 28.3 °F 28.4 °F 75% 30.18 in 10.0 mi South 10.4 mph - N/A   Scattered Clouds
9:55 AM 35.8 °F 27.8 °F 28.4 °F 75% 30.19 in 10.0 mi South 11.5 mph - N/A   Scattered Clouds
10:15 AM 36.0 °F 29.0 °F 28.6 °F 75% 30.19 in 10.0 mi SSW 9.2 mph - N/A   Unknown
10:35 AM 36.5 °F 28.2 °F 28.4 °F 72% 30.20 in 10.0 mi SSW 12.7 mph - N/A   Unknown
10:55 AM 36.5 °F 28.7 °F 28.9 °F 74% 30.21 in 10.0 mi SW 11.5 mph - N/A   Unknown
11:15 AM 35.2 °F 27.6 °F 30.2 °F 82% 30.19 in 4.0 mi SW 10.4 mph - N/A Rain Heavy Rain
11:35 AM 34.2 °F 28.2 °F 31.6 °F 90% 30.17 in 1.2 mi SW 6.9 mph - N/A Snow Light Snow
11:55 AM 34.2 °F 29.0 °F 32.0 °F 92% 30.15 in 1.5 mi SSW 5.8 mph - N/A Snow Light Snow
12:15 PM 34.3 °F 28.4 °F 32.0 °F 91% 30.14 in 2.0 mi SSW 6.9 mph - N/A Snow Light Snow
12:35 PM 34.3 °F 30.2 °F 32.0 °F 91% 30.14 in 1.8 mi SSW 4.6 mph - N/A Snow Light Snow
12:55 PM 34.3 °F 31.4 °F 32.2 °F 92% 30.12 in 1.8 mi SW 3.5 mph - N/A Rain Rain
1:15 PM 34.2 °F 30.0 °F 32.2 °F 92% 30.12 in 2.0 mi SW 4.6 mph - N/A Rain Rain
1:35 PM 34.0 °F 31.0 °F 32.2 °F 93% 30.11 in 2.0 mi SW 3.5 mph - 0.01 in Rain Light Rain
1:55 PM 34.0 °F 28.8 °F 32.2 °F 93% 30.11 in 2.0 mi SW 5.8 mph - 0.01 in Rain Heavy Rain
2:15 PM 34.0 °F 29.8 °F 32.2 °F 93% 30.12 in 1.0 mi SW 4.6 mph - 0.01 in Snow Light Snow
2:35 PM 33.8 °F 28.6 °F 32.2 °F 94% 30.12 in 1.2 mi WSW 5.8 mph - 0.01 in Snow Light Snow
2:55 PM 33.8 °F 29.6 °F 32.2 °F 94% 30.12 in 1.2 mi SW 4.6 mph - 0.01 in Snow Light Snow
3:15 PM 33.8 °F - 32.4 °F 94% 30.11 in 1.8 mi Calm Calm - N/A Snow Light Snow
3:35 PM 33.8 °F 30.8 °F 32.4 °F 94% 30.11 in 2.0 mi SSW 3.5 mph - N/A Rain Light Rain
3:55 PM 33.8 °F - 32.4 °F 94% 30.11 in 2.5 mi Calm Calm - N/A Rain Light Rain
4:15 PM 33.8 °F - 32.0 °F 93% 30.11 in 2.5 mi Calm Calm - N/A Snow Light Snow
4:35 PM 33.8 °F - 32.2 °F 94% 30.11 in 1.2 mi Calm Calm - N/A Snow Light Snow
4:55 PM 33.6 °F - 32.2 °F 94% 30.11 in 1.5 mi Calm Calm - N/A Snow Light Snow
5:15 PM 33.3 °F - 32.0 °F 95% 30.10 in 2.0 mi Calm Calm - N/A Rain Light Rain
5:35 PM 33.3 °F - 32.0 °F 95% 30.10 in 1.5 mi Calm Calm - 0.01 in   Unknown
5:55 PM 33.3 °F - 32.0 °F 95% 30.10 in 2.0 mi Calm Calm - 0.02 in Rain Light Rain
6:15 PM 33.4 °F - 32.4 °F 96% 30.10 in 2.5 mi Calm Calm - N/A Snow Light Snow
6:35 PM 33.3 °F - 32.2 °F 96% 30.10 in 1.8 mi Calm Calm - N/A Snow Light Snow
6:55 PM 33.3 °F - 32.2 °F 96% 30.10 in 1.8 mi Calm Calm - 0.01 in   Unknown
7:15 PM 33.1 °F - 32.0 °F 96% 30.10 in 1.8 mi Calm Calm - N/A Snow Light Snow
7:35 PM 33.3 °F - 32.2 °F 96% 30.10 in 1.8 mi Calm Calm - 0.01 in Snow Light Snow
7:55 PM 33.3 °F - 32.2 °F 96% 30.10 in 1.8 mi Calm Calm - 0.01 in Snow Light Snow
8:15 PM 33.1 °F - 32.0 °F 96% 30.08 in 1.5 mi Calm Calm - 0.01 in Snow Light Snow
8:35 PM 33.1 °F - 32.0 °F 96% 30.09 in 1.8 mi Calm Calm - 0.01 in Rain Light Rain
8:55 PM 33.1 °F - 32.0 °F 96% 30.08 in 1.5 mi Calm Calm - 0.01 in Snow Light Snow
9:15 PM 32.9 °F - 32.0 °F 96% 30.07 in 1.0 mi Calm Calm - N/A Snow Light Snow
9:35 PM 33.1 °F - 32.0 °F 96% 30.08 in 1.5 mi Calm Calm - N/A   Light Drizzle
9:55 PM 33.1 °F - 32.0 °F 96% 30.07 in 1.2 mi Calm Calm - N/A   Light Drizzle
10:15 PM 33.1 °F - 32.0 °F 96% 30.07 in 1.2 mi Calm Calm - N/A   Light Drizzle
10:35 PM 33.1 °F - 32.2 °F 96% 30.08 in 1.2 mi Calm Calm - N/A   Drizzle
10:55 PM 33.1 °F - 32.2 °F 96% 30.09 in 1.2 mi Calm Calm - N/A   Light Drizzle
11:15 PM 33.1 °F - 32.2 °F 96% 30.08 in 1.2 mi Calm Calm - N/A   Mist
11:35 PM 33.1 °F - 32.2 °F 96% 30.09 in 1.2 mi Calm Calm - N/A   Overcast
11:55 PM 33.3 °F 28.9 °F 32.4 °F 96% 30.09 in 1.5 mi NNW 4.6 mph - N/A   Overcast